[[{"header":{"parameterUnit":"m.s-1","parameterCategory":1,"la1":30.2991,"la2":30.254,"lo1":-89.0895,"lo2":-89.0444,"dy":0.0017,"dx":0.0017,"nx":28,"ny":28,"refTime":"2024-08-02T03:00:00:Z","depth":0,"parameterNumber":2,"parameterNumberName":"U-component_of_WINDS"},"data":[0,0,0,0,0,0,0,0,0,0,0,0,0,0,0,0,0,0,0,0,0,0,0,0,0,0,0,0,0,0,0,0,0,0,0,0,0,0,0,0,0,0,0,0,0,0,0,0,0,0,0,0,0,0,0,0,0,0,2.9411,2.9413,0,2.9577,2.9579,2.9581,2.9582,2.958,2.9578,2.9576,2.9745,2.9751,2.9758,0,0,0,0,0,0,0,0,0,0,0,0,0,2.9094,2.9099,2.9411,2.9413,2.9415,2.9577,2.9579,2.9582,2.9582,2.958,2.9577,2.9575,2.9743,2.975,2.9758,0,0,0,0,0,0,0,0,0,0,0,0,0,2.9243,2.9101,2.9411,2.9435,2.9439,2.9577,2.9579,2.9582,2.9583,2.958,2.9577,2.9574,2.974,2.975,2.9759,2.9883,0,0,2.9789,2.9793,0,0,0,0,0,0,0,0,2.9234,2.9254,2.943,2.9434,2.9438,2.9556,2.9529,2.9683,2.9584,2.9528,2.9576,2.9572,2.9684,2.9699,2.9737,2.9891,2.9898,2.979,2.9796,2.98,2.9803,0,0,0,0,0,0,0,2.9224,2.9247,2.9477,2.9432,2.9438,2.9438,2.9455,2.9558,2.9622,2.9533,2.9533,2.9553,2.9686,2.9727,2.9741,2.9901,2.979,2.9798,2.9804,2.9808,3.0164,3.0168,0,0,0,0,0,0,2.9209,2.9239,2.9472,2.9482,2.9326,2.9446,2.9466,2.9521,2.9621,2.9633,2.9556,2.9552,2.9712,2.9729,2.9747,2.9898,2.98,2.9809,2.9815,3.0161,3.0165,3.0169,0,0,0,0,0,0,2.9202,2.923,2.9465,2.9361,2.939,2.9455,2.9517,2.9526,2.9567,2.9638,2.965,2.9586,2.971,2.9733,2.9849,2.9904,2.9813,2.9822,3.0157,3.0162,3.0167,3.0201,0,0,0,0,0,0,2.9193,2.9227,2.9275,2.9362,2.9396,2.9565,2.9521,2.9532,2.9584,2.9582,2.967,2.9681,2.971,2.9835,2.9859,2.9915,2.983,3.0152,3.0159,3.0165,3.0196,3.0207,3.0217,0,0,0,0,0,2.9182,2.9278,2.9278,2.9306,2.9458,2.9568,2.9588,2.9619,2.9589,2.9637,2.9683,2.9678,2.9894,2.9846,2.9874,2.9934,3.0149,3.0157,3.0165,3.0191,3.0205,3.0217,0,0,0,0,0,0,2.9196,2.929,2.929,2.9418,2.9485,2.9568,2.9631,2.9633,2.971,2.9705,2.9739,2.9759,2.9875,2.9916,2.9862,3.0059,3.0017,3.0031,3.0028,3.0042,3.0053,3.004,2.9838,0,0,0,0,0,2.9214,2.9297,2.9374,2.9479,2.9513,2.9566,2.9615,2.9633,2.9704,2.9733,2.9787,2.9855,2.9938,2.9992,3.0073,3.0202,3.022,3.0257,3.0267,3.0276,3.0287,3.0358,3.0375,3.0196,3.0196,3.0196,0,0,2.9253,2.9314,2.9364,2.9484,2.9538,2.9622,2.959,2.9681,2.9743,2.9746,2.9859,2.9901,2.998,3.0103,3.016,3.0141,3.0341,3.0286,3.0293,3.03,3.0368,3.0385,3.04,3.0202,3.0201,3.02,0,0,2.9365,2.942,2.9514,2.9569,2.9651,2.9686,2.9708,2.9791,2.9819,2.9933,2.9937,3.0012,3.0154,3.021,3.0257,3.0391,3.039,3.0416,3.0472,3.0541,3.0555,3.0567,3.0615,3.0631,3.0427,3.0427,3.0428,0,2.9402,2.953,2.9561,2.9652,2.9704,2.9711,2.9806,2.9858,2.9962,2.9998,2.9975,3.0154,3.0208,3.0343,3.0376,3.0414,3.044,3.0406,3.055,3.0563,3.0576,3.0621,3.0638,3.043,3.043,3.043,3.0429,0,2.9571,2.9659,2.9725,2.9826,2.9885,2.9978,3.0022,3.0079,3.0092,3.0128,3.0244,3.0308,3.0402,3.0435,3.0449,3.0573,3.0559,3.0543,3.0502,3.0595,3.0638,3.0655,3.0434,3.0433,3.0432,3.0431,0,0,2.9698,2.9815,2.9838,2.9884,2.9975,3.0044,3.0136,3.0228,3.0275,3.0347,3.0425,3.0545,3.0531,3.0584,3.0604,3.0664,3.0765,3.0641,3.0643,3.0661,3.0905,3.0916,3.0935,3.0764,3.0768,3.077,3.0898,0,2.982,2.9984,3.0015,3.0158,3.024,3.0247,3.0328,3.0392,3.0429,3.0503,3.0543,3.0628,3.0603,3.0635,3.0695,3.074,3.0814,3.0731,3.0836,3.084,3.0816,3.0958,3.097,3.1088,3.0915,3.0918,3.092,0,2.9984,3.006,3.0212,3.0292,3.0327,3.0399,3.0485,3.0556,3.0629,3.0651,3.0711,3.0723,3.0819,3.0773,3.0905,3.0848,3.0893,3.0921,3.0926,3.0937,3.0885,3.0972,3.1126,3.1143,3.0947,3.0945,3.0943,0,3.0061,3.0201,3.031,3.0349,3.0445,3.0495,3.0537,3.0607,3.066,3.0735,3.077,3.0855,3.0901,3.0967,3.1002,3.0965,3.113,3.1088,3.1151,3.115,3.1185,3.1183,3.1348,3.1215,3.1215,3.1214,3.1214,0,3.0194,3.0286,3.0345,3.0412,3.0515,3.055,3.0651,3.0692,3.0754,3.0828,3.084,3.0909,3.0952,3.1027,3.1055,3.1159,3.118,3.1201,3.1207,3.12,3.1197,3.1229,3.1222,3.1219,3.1218,3.1217,3.1216,0,3.0297,3.0341,3.0459,3.0541,3.0563,3.0636,3.0705,3.077,3.0806,3.09,3.0924,3.0981,3.1071,3.1112,3.1223,3.1241,3.136,3.1361,3.1335,3.1337,3.1398,3.1392,3.159,3.1617,3.1466,3.1467,3.1469,0,3.0379,3.045,3.0539,3.059,3.0634,3.0716,3.077,3.0806,3.0862,3.095,3.1004,3.1093,3.1167,3.1309,3.136,3.1445,3.1447,3.1511,3.146,3.145,3.1448,3.1443,3.145,3.152,3.1521,3.1523,3.1524,0,3.0519,3.0537,3.0615,3.0701,3.0765,3.0834,3.0902,3.0942,3.0989,3.1051,3.1143,3.12,3.1312,3.1401,3.1489,3.1531,3.1535,3.1539,3.1558,3.1551,3.1533,3.1543,3.136,3.1534,3.1533,3.1533,3.1532,3.1532,3.0614,3.0678,3.075,3.0837,3.0891,3.0954,3.1019,3.1063,3.114,3.1235,3.1252,3.1349,3.1419,3.1537,3.1583,3.1659,3.1645,3.1672,3.1679,3.1685,3.1688,3.1521,3.1676,3.1675,3.1675,3.1675,3.1675,0,3.0755,3.0802,3.0881,3.0976,3.1043,3.1041,3.1116,3.1172,3.1258,3.1323,3.1396,3.1501,3.1586,3.1644,3.1731,3.1781,3.1785,3.1802,3.1799,3.1809,3.1697,3.1672,3.1798,3.1798,3.1798,3.1798,3.1798,3.1798,3.0836,3.0944,3.097,3.1104,3.115,3.1246,3.1289,3.1346,3.1399,3.1516,3.1587,3.1624,3.1687,3.1778,3.1856,3.1871,3.1902,3.192,3.1934,3.1829,3.1816,3.1804,3.1781,3.1927,3.1927,3.2039,3.2041,3.2041]},{"header":{"parameterUnit":"m.s-1","parameterCategory":1,"la1":30.2991,"la2":30.254,"lo1":-89.0895,"lo2":-89.0444,"dy":0.0017,"dx":0.0017,"nx":28,"ny":28,"refTime":"2024-08-02T03:00:00:Z","depth":0,"parameterNumber":3,"parameterNumberName":"V-component_of_WINDS"},"data":[0,0,0,0,0,0,0,0,0,0,0,0,0,0,0,0,0,0,0,0,0,0,0,0,0,0,0,0,0,0,0,0,0,0,0,0,0,0,0,0,0,0,0,0,0,0,0,0,0,0,0,0,0,0,0,0,0,0,5.2377,5.2379,0,5.2608,5.261,5.2613,5.2622,5.2619,5.2617,5.2614,5.2844,5.2852,5.2861,0,0,0,0,0,0,0,0,0,0,0,0,0,5.1936,5.1944,5.2376,5.2379,5.2382,5.2607,5.261,5.2613,5.2623,5.2619,5.2616,5.2613,5.2841,5.2851,5.2862,0,0,0,0,0,0,0,0,0,0,0,0,0,5.2143,5.1946,5.2376,5.2414,5.242,5.2607,5.261,5.2614,5.2623,5.2619,5.2615,5.2611,5.2838,5.285,5.2863,5.3025,0,0,5.2903,5.2909,0,0,0,0,0,0,0,0,5.2131,5.2159,5.2406,5.2412,5.2419,5.2582,5.2539,5.2752,5.2624,5.2546,5.2614,5.2609,5.276,5.2779,5.2831,5.3036,5.3046,5.2904,5.2912,5.2918,5.2921,0,0,0,0,0,0,0,5.2117,5.2149,5.2468,5.2409,5.2417,5.2417,5.2442,5.2579,5.2673,5.2552,5.2554,5.2581,5.2762,5.2818,5.2836,5.3049,5.2904,5.2915,5.2923,5.2928,5.3397,5.3401,0,0,0,0,0,0,5.2096,5.2137,5.246,5.2475,5.2262,5.2428,5.2456,5.2534,5.2671,5.2689,5.2585,5.2581,5.2798,5.2821,5.2845,5.3043,5.2917,5.293,5.2937,5.3392,5.3398,5.3403,0,0,0,0,0,0,5.2086,5.2125,5.2451,5.2306,5.2348,5.244,5.2527,5.254,5.2597,5.2696,5.2712,5.2625,5.2796,5.2826,5.298,5.3051,5.2935,5.2947,5.3386,5.3394,5.34,5.3441,0,0,0,0,0,0,5.2074,5.2121,5.2186,5.2308,5.2356,5.2586,5.2532,5.2548,5.262,5.2617,5.2738,5.2754,5.2795,5.2961,5.2993,5.3067,5.2957,5.3381,5.339,5.3398,5.3433,5.3448,5.3461,0,0,0,0,0,5.2058,5.2187,5.2189,5.2228,5.2439,5.259,5.2617,5.2663,5.2625,5.269,5.2753,5.275,5.3038,5.2977,5.3013,5.3091,5.3376,5.3387,5.3397,5.3427,5.3445,5.346,0,0,0,0,0,0,5.2069,5.2204,5.2208,5.238,5.2474,5.2591,5.2674,5.2681,5.2785,5.2778,5.2829,5.2856,5.3009,5.3065,5.2995,5.3254,5.3202,5.322,5.3212,5.323,5.3244,5.3227,5.2968,0,0,0,0,0,5.2092,5.2206,5.2316,5.2458,5.2504,5.2581,5.2649,5.2676,5.2774,5.2813,5.2888,5.2981,5.3092,5.3164,5.3272,5.3441,5.3466,5.3512,5.3526,5.3537,5.3552,5.3644,5.3665,5.3437,5.3437,5.3437,0,0,5.2139,5.2227,5.2296,5.2462,5.2538,5.2652,5.2614,5.2737,5.2822,5.2831,5.2982,5.3039,5.3146,5.3308,5.3383,5.336,5.362,5.355,5.3558,5.3568,5.3657,5.3678,5.3697,5.3444,5.3443,5.3442,0,0,5.2285,5.2364,5.249,5.2567,5.2682,5.2732,5.2762,5.2879,5.2918,5.307,5.3079,5.3178,5.3369,5.3445,5.3508,5.368,5.3681,5.3713,5.3785,5.3874,5.3892,5.3908,5.3969,5.399,5.3728,5.3728,5.3728,0,5.233,5.2505,5.2553,5.2677,5.2749,5.2764,5.2891,5.2962,5.3105,5.3153,5.3125,5.3364,5.3437,5.3617,5.3658,5.3709,5.3743,5.3701,5.3886,5.3903,5.3918,5.3977,5.3999,5.3732,5.3731,5.3731,5.3731,0,5.2554,5.2674,5.2762,5.2903,5.2984,5.3109,5.3173,5.3249,5.3269,5.3321,5.3474,5.3562,5.3687,5.3731,5.3751,5.3913,5.3895,5.3876,5.3824,5.3943,5.3998,5.4021,5.3736,5.3735,5.3734,5.3733,0,0,5.2715,5.288,5.2911,5.2975,5.3102,5.3195,5.3318,5.3443,5.3507,5.3604,5.3708,5.3868,5.3851,5.3922,5.395,5.4028,5.4158,5.4,5.4003,5.4026,5.4339,5.4353,5.4379,5.4158,5.4163,5.4166,5.433,0,5.2875,5.3098,5.3144,5.3336,5.3447,5.3461,5.3568,5.3656,5.3707,5.3807,5.3861,5.3974,5.3944,5.3987,5.4065,5.4125,5.4221,5.4114,5.4253,5.4257,5.4227,5.4408,5.4423,5.4574,5.4352,5.4356,5.4359,0,5.3092,5.3197,5.34,5.3512,5.356,5.3656,5.3773,5.3868,5.3967,5.3998,5.4078,5.4097,5.4222,5.4164,5.4337,5.4263,5.4322,5.436,5.4367,5.4382,5.4316,5.4427,5.4624,5.4646,5.4394,5.4391,5.4388,0,5.3188,5.338,5.3527,5.358,5.3714,5.3781,5.3839,5.3934,5.4006,5.4106,5.4153,5.4266,5.4327,5.4413,5.4461,5.4414,5.4629,5.4576,5.4657,5.4656,5.4703,5.4699,5.4911,5.474,5.474,5.4739,5.4739,0,5.3363,5.3486,5.3572,5.3662,5.38,5.385,5.3984,5.4041,5.4126,5.4225,5.4243,5.4335,5.4392,5.4492,5.4529,5.4666,5.4693,5.472,5.4729,5.4719,5.4716,5.4759,5.475,5.4745,5.4744,5.4743,5.4742,0,5.3495,5.3557,5.3718,5.3831,5.3862,5.3959,5.4055,5.4141,5.4191,5.4316,5.4348,5.4426,5.4544,5.46,5.4746,5.4771,5.4925,5.4927,5.4893,5.4896,5.4974,5.4966,5.5221,5.5257,5.5062,5.5064,5.5066,0,5.3602,5.3698,5.3822,5.3891,5.3952,5.4062,5.4135,5.4186,5.4261,5.438,5.4451,5.457,5.4669,5.4855,5.4923,5.5033,5.5038,5.5119,5.5054,5.5041,5.5038,5.5032,5.5041,5.5131,5.5133,5.5135,5.5136,0,5.3786,5.3812,5.3918,5.4035,5.4122,5.4216,5.4307,5.4362,5.4427,5.451,5.4632,5.4708,5.4856,5.4973,5.5088,5.5145,5.5151,5.5156,5.518,5.5172,5.5148,5.5162,5.4925,5.515,5.5148,5.5147,5.5147,5.5146,5.3909,5.3995,5.4095,5.4212,5.4287,5.4372,5.4459,5.452,5.4623,5.475,5.4773,5.4902,5.4995,5.515,5.5211,5.531,5.5291,5.5327,5.5336,5.5344,5.5348,5.5132,5.5331,5.5331,5.533,5.533,5.533,0,5.4094,5.4159,5.4266,5.4395,5.4486,5.4485,5.4586,5.4662,5.4776,5.4864,5.496,5.5098,5.5211,5.5288,5.5402,5.5466,5.5472,5.5494,5.549,5.5503,5.5359,5.5326,5.5488,5.5488,5.5488,5.5488,5.5488,5.5488,5.4201,5.4345,5.4383,5.4563,5.4626,5.4755,5.4812,5.4889,5.496,5.5115,5.521,5.5259,5.5341,5.5461,5.5564,5.5583,5.5623,5.5647,5.5665,5.553,5.5513,5.5497,5.5467,5.5655,5.5655,5.5801,5.5802,5.5803]}]]